This demonstration page uses our WeatherBlox Daily Observations layout. Learn more.

Left ArrowRight Arrow

47.50024, -111.30081

Hourly Observations for May 13, 2017

Temp ( °F °C ) Dew Point ( °F °C ) Humidity (%) Winds ( mph kmh ) Pressure ( in mb ) Visibility ( mi km ) Precip ( " mm )
12:53 am 00:53 Cloudy with Rain 41 5 39 3.9 93 93 SSW 10 17 29.75 1007 7 11 0.05 1.27
1:53 am 01:53 Cloudy with Light Rain 42 5.6 39 3.9 89 89 S 8 13 29.74 1007 10 16 0.05 1.27
2:53 am 02:53 Cloudy 42 5.6 38 3.3 85 85 S 12 19 29.74 1007 10 16 0.00 0.03
3:53 am 03:53 Cloudy 42 5.6 36 2.2 79 79 SW 14 22 29.72 1007 10 16 0.00 0.00
4:53 am 04:53 Cloudy 42 5.6 35 1.7 76 76 SSW 15 24 29.74 1007 10 16 0.00 0.00
5:53 am 05:53 Cloudy 41 5 35 1.7 79 79 SW 16 26 29.73 1007 10 16 0.00 0.00
6:53 am 06:53 Mostly Cloudy 42 5.6 35 1.7 76 76 WSW 12 19 29.75 1007 10 16 0.00 0.00
7:53 am 07:53 Cloudy 45 7.2 34 1.1 66 66 WSW 12 19 29.77 1008 10 16 0.00 0.00
8:53 am 08:53 Sunny 47 8.3 32 0 56 56 WSW 15 24 29.77 1008 10 16 0.00 0.00
9:53 am 09:53 Cloudy 48 8.9 31 -0.6 52 52 WSW 17 28 29.77 1008 10 16 0.00 0.00
10:53 am 10:53 Cloudy 50 10 27 -2.8 41 41 W 15 24 29.77 1008 10 16 0.00 0.00
11:53 am 11:53 Cloudy 51 10.6 28 -2.2 41 41 WSW 13 20 29.76 1008 10 16 0.00 0.00
12:53 pm 12:53 Sunny 52 11.1 26 -3.3 37 37 W 17 28 29.74 1007 10 16 0.00 0.00
1:53 pm 13:53 Cloudy 50 10 29 -1.7 44 44 SW 16 26 29.78 1008 10 16 0.00 0.00
2:53 pm 14:53 Cloudy 51 10.6 28 -2.2 41 41 SW 13 20 29.78 1009 10 16 0.00 0.00
3:53 pm 15:53 Cloudy 49 9.4 29 -1.7 46 46 S 13 20 29.81 1010 10 16 0.00 0.00
4:53 pm 16:53 Mostly Cloudy 49 9.4 31 -0.6 50 50 SSW 15 24 29.82 1010 10 16 0.00 0.00
5:53 pm 17:53 Cloudy 48 8.9 30 -1.1 50 50 SW 21 33 29.83 1010 10 16 0.00 0.00
6:53 pm 18:53 Cloudy 46 7.8 31 -0.6 56 56 SSW 13 20 29.84 1010 10 16 0.00 0.00
7:53 pm 19:53 Mostly Sunny 46 7.8 29 -1.7 51 51 SW 13 20 29.83 1010 10 16 0.00 0.00
8:53 pm 20:53 Sunny 44 6.7 27 -2.8 51 51 SW 15 24 29.83 1010 10 16 0.00 0.00
9:53 pm 21:53 Clear 41 5 27 -2.8 57 57 SW 12 19 29.86 1011 10 16 0.00 0.00
10:53 pm 22:53 Clear 38 3.3 27 -2.8 65 65 SSW 12 19 29.88 1012 10 16 0.00 0.00
11:53 pm 23:53 Clear 39 3.9 26 -3.3 60 60 SW 16 26 29.87 1012 10 16 0.00 0.00

Powered by AerisWeather